Time,TemperatureF,DewpointF,PressureIn,WindDirection,WindDirectionDegrees,WindSpeedMPH,WindSpeedGustMPH,Humidity,HourlyPrecipIn,Conditions,Clouds,dailyrainin,SoftwareType,DateUTC
2014-09-01 00:13:00,75.0,70.0,29.98,NW,309,0.0,0.0,84,0.00,,,0.00,,2014-09-01 04:13:00,
2014-09-01 00:23:00,75.0,70.0,29.98,NW,309,0.0,0.0,84,0.00,,,0.00,,2014-09-01 04:23:00,
2014-09-01 01:13:00,76.0,71.0,29.98,NW,309,0.0,0.0,84,0.00,,,0.00,,2014-09-01 05:13:00,
2014-09-01 01:43:00,76.0,70.0,29.98,NW,309,0.0,0.0,83,0.00,,,0.00,,2014-09-01 05:43:00,
2014-09-01 01:52:00,75.0,69.0,29.98,NW,309,0.0,0.0,83,0.00,,,0.00,,2014-09-01 05:52:00,
2014-09-01 02:22:00,75.0,69.0,29.98,NW,309,0.0,0.0,83,0.00,,,0.00,,2014-09-01 06:22:00,
2014-09-01 02:52:00,75.0,69.0,29.97,NW,309,0.0,0.0,83,0.00,,,0.00,,2014-09-01 06:52:00,
2014-09-01 03:12:00,75.0,70.0,29.97,NW,309,0.0,0.0,84,0.00,,,0.00,,2014-09-01 07:12:00,
2014-09-01 04:13:00,74.0,69.0,29.97,NW,309,0.0,0.0,84,0.00,,,0.00,,2014-09-01 08:13:00,
2014-09-01 04:22:00,74.0,69.0,29.97,NW,309,0.0,0.0,84,0.00,,,0.00,,2014-09-01 08:22:00,
2014-09-01 04:52:00,74.0,69.0,29.98,NW,309,0.0,0.0,85,0.00,,,0.00,,2014-09-01 08:52:00,
2014-09-01 05:12:00,73.0,68.0,29.98,NW,309,0.0,0.0,85,0.00,,,0.00,,2014-09-01 09:12:00,
2014-09-01 05:44:00,73.0,69.0,29.98,NW,309,0.0,0.0,86,0.00,,,0.00,,2014-09-01 09:44:00,
2014-09-01 06:23:00,72.0,68.0,29.99,NW,309,0.0,0.0,86,0.00,,,0.00,,2014-09-01 10:23:00,
2014-09-01 06:54:00,72.0,68.0,29.99,NW,309,0.0,0.0,86,0.00,,,0.00,,2014-09-01 10:54:00,
2014-09-01 07:13:00,72.0,68.0,30.00,NW,309,0.0,0.0,86,0.00,,,0.00,,2014-09-01 11:13:00,
2014-09-01 07:52:00,72.0,68.0,30.01,SSW,194,0.0,0.0,87,0.00,,,0.00,,2014-09-01 11:52:00,
2014-09-01 08:42:00,72.0,68.0,30.01,SSW,194,0.0,0.0,87,0.00,,,0.00,,2014-09-01 12:42:00,
2014-09-01 08:53:00,72.0,68.0,30.01,SW,229,0.0,1.0,88,0.00,,,0.00,,2014-09-01 12:53:00,
2014-09-01 09:12:00,72.0,68.0,30.01,SW,229,0.0,0.0,88,0.00,,,0.00,,2014-09-01 13:12:00,
2014-09-01 09:42:00,73.0,70.0,30.00,SW,229,0.0,0.0,89,0.00,,,0.00,,2014-09-01 13:42:00,
2014-09-01 09:53:00,74.0,71.0,30.00,SW,233,0.0,2.0,89,0.00,,,0.00,,2014-09-01 13:53:00,
2014-09-01 10:52:00,77.0,72.0,30.01,SW,223,0.0,2.0,85,0.00,,,0.00,,2014-09-01 14:52:00,
2014-09-01 11:12:00,79.0,73.0,30.00,SW,223,0.0,0.0,83,0.00,,,0.00,,2014-09-01 15:12:00,
2014-09-01 11:54:00,85.0,73.0,29.99,SW,231,0.0,0.0,68,0.00,,,0.00,,2014-09-01 15:54:00,
2014-09-01 12:13:00,86.0,72.0,29.99,SW,226,0.0,0.0,63,0.00,,,0.00,,2014-09-01 16:13:00,
2014-09-01 12:24:00,87.0,72.0,29.99,SSW,213,0.0,1.0,61,0.00,,,0.00,,2014-09-01 16:24:00,
2014-09-01 12:43:00,86.0,71.0,29.99,SW,216,0.0,0.0,62,0.00,,,0.00,,2014-09-01 16:43:00,
2014-09-01 13:13:00,87.0,70.0,29.98,SW,216,0.0,1.0,58,0.00,,,0.00,,2014-09-01 17:13:00,
2014-09-01 13:23:00,87.0,68.0,29.98,SW,217,0.0,2.0,54,0.00,,,0.00,,2014-09-01 17:23:00,
2014-09-01 13:43:00,87.0,68.0,29.97,SSW,207,0.0,2.0,53,0.00,,,0.00,,2014-09-01 17:43:00,
2014-09-01 14:13:00,88.0,69.0,29.97,SSW,202,0.0,2.0,53,0.00,,,0.00,,2014-09-01 18:13:00,
2014-09-01 14:22:00,89.0,69.0,29.96,SW,234,0.0,0.0,52,0.00,,,0.00,,2014-09-01 18:22:00,
2014-09-01 14:52:00,89.0,69.0,29.96,WSW,241,0.0,2.0,52,0.00,,,0.00,,2014-09-01 18:52:00,
2014-09-01 15:22:00,90.0,67.0,29.95,South,190,0.0,3.0,47,0.00,,,0.00,,2014-09-01 19:22:00,
2014-09-01 15:42:00,88.0,68.0,29.94,SSW,194,0.0,0.0,52,0.00,,,0.00,,2014-09-01 19:42:00,
2014-09-01 16:12:00,89.0,71.0,29.95,SSW,193,0.0,0.0,55,0.00,,,0.00,,2014-09-01 20:12:00,
2014-09-01 16:23:00,89.0,71.0,29.94,SSW,193,0.0,0.0,56,0.00,,,0.00,,2014-09-01 20:23:00,
2014-09-01 16:52:00,88.0,72.0,29.93,SSW,193,0.0,0.0,60,0.00,,,0.00,,2014-09-01 20:52:00,
2014-09-01 17:22:00,88.0,71.0,29.93,SSW,193,0.0,0.0,57,0.00,,,0.00,,2014-09-01 21:22:00,